Weather History for KMTC - October, 2011

Change the Weather History Date:

Saturday, October 1, 2011

  Actual Average Record
Temperature  
Mean Temperature 48 °F -  
Max Temperature 53 °F 65 °F 86 °F (1952)
Min Temperature 42 °F 47 °F 35 °F (1960)
Degree Days  
Heating Degree Days 18    
Moisture  
Dew Point 41 °F    
Average Humidity 83    
Maximum Humidity 93    
Minimum Humidity 54    
Precipitation  
Precipitation 0.01 in - - ()
Sea Level Pressure  
Sea Level Pressure 30.01 in    
Wind  
Wind Speed 16 mph (NNW)    
Max Wind Speed 28 mph    
Max Gust Speed 38 mph    
Visibility 9 miles    
Events Rain    
Averages and records for this station are not official NWS values.
T = Trace of Precipitation, MM = Missing Value Source: NWS Daily Summary

Daily Weather History Graph

Daily Weather History Graph

Search for Another Location

Airport or City:

Trip Planner

Search our weather history database for the weather conditions in past years. The results will help you decide how hot, cold, wet, or windy it might be!

Date:

Astronomy

Oct. 01, 2011 Rise Set
Actual Time 7:28 AM EDT 7:13 PM EDT
Civil Twilight 7:00 AM EDT 7:41 PM EDT
Nautical Twilight 6:27 AM EDT 8:13 PM EDT
Astronomical Twilight 5:54 AM EDT 8:46 PM EDT
Moon 12:40 PM EDT (10/1) 10:01 PM EDT (10/1)
Length of Visible Light 12h 41m
Length of Day
11h 44m
Waxing Crescent, 24% of the Moon is Illuminated
Oct 1
Waxing Crescent
Oct 3
First Quarter
Oct 11
Full
Oct 19
Last Quarter
Oct 26
New

Hourly Weather History & Observations

Time (EDT) Temp. Windchill Dew Point Humidity Pressure Visibility Wind Dir Wind Speed Gust Speed Precip Events Conditions
12:20 AM 42.8 °F 35.4 °F 41.0 °F 93% 29.90 in 10.0 mi NW 15.0 mph 21.9 mph N/A Rain Light Rain
12:53 AM 42.8 °F 35.4 °F 41.0 °F 93% 29.90 in 10.0 mi NW 15.0 mph 21.9 mph N/A   Overcast
12:55 AM 43.7 °F 37.7 °F 41.0 °F 90% 29.90 in 10.0 mi NW 11.5 mph 21.9 mph 0.00 in Rain Light Rain
1:33 AM 44.6 °F 36.9 °F 41.0 °F 87% 29.90 in 10.0 mi NNW 18.4 mph 24.2 mph N/A   Overcast
1:34 AM 44.6 °F 37.2 °F 41.0 °F 87% 29.90 in 10.0 mi NNW 17.3 mph 24.2 mph N/A Rain Light Rain
1:38 AM 44.6 °F 37.4 °F 42.8 °F 93% 29.90 in 10.0 mi NNW 16.1 mph 24.2 mph N/A   Overcast
1:39 AM 44.6 °F 37.4 °F 42.8 °F 93% 29.90 in 10.0 mi NNW 16.1 mph 24.2 mph N/A Rain Light Rain
1:55 AM 44.4 °F 37.2 °F 42.3 °F 92% 29.90 in 9.0 mi NNW 16.1 mph 24.2 mph 0.00 in Rain Light Rain
1:56 AM 44.6 °F 37.8 °F 42.8 °F 93% 29.91 in 8.0 mi NNW 15.0 mph 24.2 mph N/A Rain Light Rain
2:08 AM 44.6 °F 37.8 °F 42.8 °F 93% 29.91 in 6.0 mi NNW 15.0 mph 21.9 mph N/A   Overcast
2:24 AM 44.6 °F 37.8 °F 42.8 °F 93% 29.91 in 9.0 mi NNW 15.0 mph - N/A   Overcast
2:46 AM 44.6 °F 37.4 °F 42.8 °F 93% 29.91 in 10.0 mi North 16.1 mph - N/A Rain Light Rain
2:55 AM 45.5 °F 38.1 °F 43.3 °F 92% 29.91 in 10.0 mi NNW 18.4 mph 24.2 mph 0.00 in   Overcast
3:00 AM 46.4 °F 39.2 °F 42.8 °F 87% 29.91 in 10.0 mi NNW 18.4 mph 26.5 mph N/A Rain Light Rain
3:01 AM 46.4 °F 39.2 °F 42.8 °F 87% 29.91 in 10.0 mi North 18.4 mph 26.5 mph N/A Rain Light Rain
3:34 AM 46.4 °F 38.7 °F 44.6 °F 93% 29.92 in 10.0 mi North 20.7 mph 27.6 mph N/A Rain Light Rain
3:36 AM 46.4 °F 39.2 °F 44.6 °F 93% 29.92 in 10.0 mi North 18.4 mph 27.6 mph N/A Rain Light Rain
3:46 AM 46.4 °F 38.7 °F 44.6 °F 93% 29.93 in 10.0 mi North 20.7 mph 26.5 mph N/A Rain Light Rain
3:51 AM 46.4 °F 39.2 °F 44.6 °F 93% 29.93 in 10.0 mi North 18.4 mph 26.5 mph N/A Rain Light Rain
3:55 AM 45.9 °F 38.8 °F 44.1 °F 93% 29.93 in 10.0 mi North 17.3 mph 28.8 mph 0.00 in Rain Light Rain
4:07 AM 46.4 °F 39.2 °F 44.6 °F 93% 29.94 in 10.0 mi North 18.4 mph 27.6 mph N/A Rain Light Rain
4:15 AM 46.4 °F 39.5 °F 44.6 °F 93% 29.94 in 10.0 mi North 17.3 mph 24.2 mph N/A   Overcast
4:55 AM 46.4 °F 40.4 °F 44.6 °F 93% 29.96 in 10.0 mi North 13.8 mph 25.3 mph N/A   Overcast
5:55 AM 46.4 °F 40.4 °F 44.6 °F 93% 29.99 in 12.0 mi North 13.8 mph 23.0 mph N/A   Overcast
6:55 AM 46.4 °F 39.8 °F 42.8 °F 87% 30.01 in 12.0 mi North 16.1 mph 23.0 mph N/A   Overcast
7:20 AM 46.4 °F 39.5 °F 44.6 °F 93% 29.99 in 4.0 mi North 17.3 mph 23.0 mph N/A Rain Light Rain
7:55 AM 44.6 °F 37.8 °F 42.8 °F 93% 30.04 in 4.0 mi North 15.0 mph 24.2 mph N/A Rain Light Rain
8:07 AM 44.6 °F 38.4 °F 42.8 °F 93% 30.01 in 5.0 mi North 12.7 mph - N/A Rain Light Rain
8:55 AM 44.6 °F 38.8 °F 42.8 °F 93% 30.08 in 4.0 mi North 11.5 mph 21.9 mph N/A Rain Light Rain
9:55 AM 46.4 °F 39.0 °F 41.0 °F 81% 30.10 in 7.0 mi North 19.6 mph 28.8 mph N/A Rain Light Rain
10:07 AM 46.4 °F 38.5 °F 41.0 °F 81% 30.07 in 10.0 mi North 21.9 mph 27.6 mph N/A   Overcast
10:59 AM 48.2 °F - 39.2 °F 71% 30.12 in 10.0 mi North 20.7 mph 28.8 mph N/A   Overcast
11:59 AM 50.0 °F - 37.4 °F 62% 30.12 in 10.0 mi North 26.5 mph 35.7 mph N/A   Mostly Cloudy
12:05 PM 50.0 °F - 39.2 °F 66% 30.08 in 10.0 mi NNE 27.6 mph 35.7 mph N/A   Mostly Cloudy
12:59 PM 51.8 °F - 39.2 °F 62% 30.13 in 10.0 mi NNE 21.9 mph 33.4 mph N/A   Mostly Cloudy
1:57 PM 51.8 °F - 37.4 °F 58% 30.13 in 10.0 mi North 20.7 mph 31.1 mph N/A   Mostly Cloudy
2:57 PM 53.6 °F - 37.4 °F 54% 30.13 in 10.0 mi North 20.7 mph 38.0 mph N/A   Mostly Cloudy
3:55 PM 51.8 °F - 37.4 °F 58% 30.15 in 10.0 mi North 20.7 mph 28.8 mph N/A   Scattered Clouds
4:55 PM 51.8 °F - 35.6 °F 54% 30.15 in 10.0 mi North 21.9 mph 29.9 mph N/A   Scattered Clouds
5:55 PM 50.0 °F - 33.8 °F 54% 30.17 in 10.0 mi North 17.3 mph 26.5 mph N/A   Mostly Cloudy
6:56 PM 48.2 °F - 33.8 °F 58% 30.18 in 10.0 mi NNW 13.8 mph 25.3 mph N/A   Mostly Cloudy
7:56 PM 46.4 °F 40.7 °F 35.6 °F 66% 30.17 in 10.0 mi NNW 12.7 mph - N/A   Mostly Cloudy
8:56 PM 44.6 °F 39.2 °F 35.6 °F 71% 30.18 in 10.0 mi NNW 10.4 mph - N/A   Scattered Clouds
9:55 PM 44.6 °F 39.7 °F 37.4 °F 76% 30.18 in 10.0 mi NNW 9.2 mph - N/A   Partly Cloudy
10:55 PM 42.8 °F 38.0 °F 37.4 °F 81% 30.18 in 10.0 mi NNW 8.1 mph - N/A   Partly Cloudy
11:55 PM 43.2 °F 38.4 °F 37.6 °F 81% 30.17 in 10.0 mi NW 8.1 mph - N/A   Scattered Clouds